ARIANE 1 DEB, 25767

Orbit data source: Space-Track

ARIANE 1 DEB, 25767 is space debris in LEO originally from a launch on Mon, 24 Dec 1979 UTC launched from the French Guiana (FRGUI). Debris objects in space refer to the collection of defunct objects orbiting the Earth. Examples of debris include non-operational satellites, rocket bodies, and fragments generated from explosions, collisions, or faulty payload assembly.

Loading next visibility...
Identifier
25767, 1979-104J
Orbit
LEO
Country
Flag of FRFR
Related business
Manufacturer
Unknown
Mission
Spacecraft
Bus & Motor
Unknown
Mass
Unknown
Launch date (UTC)
1979-12-24 (46 years ago)
Launch vehicle
Unknown
Launch site
French Guiana (FRGUI)
Object type
Payload
Rocket body
Debris
Shape & HBR
Unknown shape, 0.3 m
Radar Cross Section
Medium (>0.1 m² and <1 m²)

Expand to show TLE details & history
Last TLE update: 3 days ago

TLE from 3 days ago
0 ARIANE 1 DEB
1 25767U 79104J   26171.07489310  .00027311  00000-0  16187-2 0  9996
2 25767  17.8045 115.7624 2361095 149.3756 226.8530 10.59313306383574
Epoch: 2026-06-20T01:47Z
TLE epoch observation values (Epoch: 2026-06-20T01:47:50.763Z)
Latitude
Longitude
-179.49384°
Altitude
3,996.442 km
Speed
5.599 km/s
True Right ascension
07h 43m 02s
True Declination
0° 00' 00"
Sunlit
Object was in daylight at epoch
Visualization orbit readout
Latitude
Unknown
Longitude
Unknown
Altitude
Unknown
Speed
Unknown
Apparent Right ascension
Unknown
Apparent Declination
Unknown
Sunlit
N/A
Visualization observer readout
Local Sidereal Time
00:51:06
Azimuth
Unknown
Elevation
Unknown
Doppler factor
Unknown
Orbital elements
Apogee altitude
4,453.061 km
Perigee altitude
315.323 km
Semi-major axis
8,762.329 km
Eccentricity
0.23611
Inclination
17.8045°
RAAN
115.7624°
Arg. of periapsis
149.3756°
True anomaly
210.65445°
Mean anomaly
226.853°
Eccentric anomaly
218.44225°
Mean motion
2.64615 °/min
Orbital period
136.05 mins
BSTAR
0.0016187
Loading maneuver chart data...
Computing Atmospheric mass density...
Loading historical data...
Loading historical data...
Loading historical data...
Loading historical data...
Loading historical data...
Loading historical data...
Loading historical data...

Documentation

Showing up to 5 results
|